Flag for U.S.A. Weather past 2 weeks in Memphis, Tennessee, U.S.A.

Now
70 °F

Partly sunny.


Feels Like: 77 °F
Forecast: 44 / 68 °F
Wind: 7 mph from South

Location: Memphis International Airport


UV Index: 5 (Moderate)

Visibility: 10 mi


Pressure: 30.22 "Hg

Humidity: 35%

Dew point: 41 °F

Location of MemphisLocation

Historic Weather in Memphis

°F

Memphis temperature yesterday

Maximum temperature yesterday: 62 °F (at 4:54 PM)
Minimum temperature yesterday: 37 °F (at 5:54 AM)
Average temperature yesterday: 50 °F

Past Weeks' High & Low Weather Summary

 TemperatureHumidityPressure
High81 °F (Apr 3, 4:54 PM)97% (Apr 7, 6:54 AM)30.29 "Hg (Apr 7, 6:54 AM)
Low36 °F (Apr 15, 5:54 AM)21% (Apr 16, 5:54 PM)29.54 "Hg (Apr 7, 5:54 AM)
Average59 °F61%29.98 "Hg
* Reported Apr 2 1:54 PM — Apr 17 1:54 PM, Memphis, Weather by CustomWeather, © 2014

Note: Actual official high and low records may vary slightly from our data, if they occured in-between our weather recording intervals... More about our weather records

Advertising

Historic Weather Conditions — Data for Previous 24 hours

 ConditionsComfort  
Time TempWeatherWind HumidityBarometerVisibility
1:54 PM
Apr 17
69 °FPartly sunny.10 mph36%30.23 "Hg10 mi
12:54 PM66 °FHigh level clouds.5 mph37%30.25 "Hg10 mi
11:54 AM66 °FPartly sunny.9 mph42%30.28 "Hg10 mi
10:54 AM64 °FPartly sunny.9 mph45%30.29 "Hg10 mi
9:54 AM61 °FScattered clouds.14 mph48%30.29 "Hg10 mi
8:54 AM56 °FPassing clouds.12 mph53%30.27 "Hg10 mi
7:54 AM51 °FPassing clouds.12 mph59%30.26 "Hg10 mi
6:54 AM45 °FPassing clouds.3 mph68%30.23 "Hg10 mi
5:54 AM45 °FPassing clouds.3 mph65%30.21 "Hg10 mi
4:54 AM46 °FClear.3 mph61%30.19 "Hg10 mi
3:54 AM49 °FClear.6 mph57%30.19 "Hg10 mi
2:54 AM48 °FPassing clouds.3 mph56%30.18 "Hg10 mi
1:54 AM48 °FPassing clouds.7 mph54%30.18 "Hg10 mi
12:54 AM47 °FPassing clouds.6 mph56%30.19 "Hg10 mi
11:54 PM
Apr 16
48 °FPassing clouds.No wind61%30.18 "Hg10 mi
10:54 PM50 °FPassing clouds.No wind54%30.16 "Hg10 mi
9:54 PM52 °FPassing clouds.No wind49%30.15 "Hg10 mi
8:54 PM54 °FPassing clouds.3 mph41%30.13 "Hg10 mi
7:54 PM58 °FPassing clouds.3 mph28%30.11 "Hg10 mi
6:54 PM60 °FHigh level clouds.7 mph27%30.10 "Hg10 mi
5:54 PM62 °FHigh level clouds.10 mph21%30.10 "Hg10 mi
4:54 PM62 °FHigh level clouds.3 mph22%30.11 "Hg10 mi
3:54 PM61 °FHigh level clouds.5 mph24%30.14 "Hg10 mi
Weather by CustomWeather, © 2014

See weather overview